Weather History for KITH - March, 2014

Change the Weather History Date:

Tuesday, March 18, 2014

  Actual Average Record
Temperature  
Mean Temperature 30 °F -  
Max Temperature 43 °F - - ()
Min Temperature 17 °F - - ()
Degree Days  
Heating Degree Days 35    
Moisture  
Dew Point 9 °F    
Average Humidity 43    
Maximum Humidity 57    
Minimum Humidity 28    
Precipitation  
Precipitation 0.00 in - - ()
Sea Level Pressure  
Sea Level Pressure 30.18 in    
Wind  
Wind Speed 7 mph (SE)    
Max Wind Speed 15 mph    
Max Gust Speed 21 mph    
Visibility 10 miles    
Events      
T = Trace of Precipitation, MM = Missing Value Source: NWS Daily Summary

Daily Weather History Graph

Daily Weather History Graph

Search for Another Location

Airport or City:

Trip Planner

Search our weather history database for the weather conditions in past years. The results will help you decide how hot, cold, wet, or windy it might be!

Date:

Astronomy

Mar. 18, 2014 Rise Set
Actual Time 7:12 AM EDT 7:15 PM EDT
Civil Twilight 6:44 AM EDT 7:43 PM EDT
Nautical Twilight 6:11 AM EDT 8:16 PM EDT
Astronomical Twilight 5:38 AM EDT 8:50 PM EDT
Moon 9:34 PM EDT (3/18) 7:58 AM EDT (3/18)
Length of Visible Light 12h 59m
Length of Day
12h 03m
Waning Gibbous, 96% of the Moon is Illuminated
Mar 18
Waning Gibbous
Mar 23
Last Quarter
Mar 30
New
Apr 7
First Quarter
Apr 15
Full

Hourly Weather History & Observations

Time (EDT) Temp. Windchill Dew Point Humidity Pressure Visibility Wind Dir Wind Speed Gust Speed Precip Events Conditions
12:56 AM 17.1 °F 8.7 °F 4.1 °F 57% 30.11 in 10.0 mi East 5.8 mph - N/A   Clear
1:56 AM 19.0 °F 13.9 °F 3.0 °F 50% 30.12 in 10.0 mi East 3.5 mph - N/A   Clear
2:56 AM 18.1 °F - 4.1 °F 54% 30.12 in 10.0 mi Calm Calm - N/A   Clear
3:56 AM 18.1 °F 10.0 °F 4.1 °F 54% 30.12 in 10.0 mi East 5.8 mph - N/A   Clear
4:56 AM 19.0 °F 11.1 °F 5.0 °F 54% 30.14 in 10.0 mi East 5.8 mph - N/A   Overcast
5:56 AM 20.1 °F 12.3 °F 5.0 °F 52% 30.15 in 10.0 mi East 5.8 mph - N/A   Overcast
6:27 AM 19.4 °F 10.4 °F 5.0 °F 54% 30.10 in 10.0 mi East 6.9 mph - N/A   Mostly Cloudy
6:56 AM 20.1 °F 13.6 °F 6.1 °F 55% 30.17 in 10.0 mi East 4.6 mph - N/A   Mostly Cloudy
7:56 AM 22.1 °F 14.7 °F 6.1 °F 50% 30.19 in 10.0 mi East 5.8 mph - N/A   Mostly Cloudy
8:56 AM 25.2 °F 16.5 °F 5.0 °F 42% 30.19 in 10.0 mi SE 8.1 mph - N/A   Mostly Cloudy
9:56 AM 29.1 °F 21.3 °F 2.1 °F 32% 30.22 in 10.0 mi SSE 8.1 mph - N/A   Overcast
10:56 AM 32.0 °F 23.0 °F 3.0 °F 29% 30.21 in 10.0 mi SSE 11.5 mph - N/A   Mostly Cloudy
11:56 AM 34.9 °F 25.3 °F 5.0 °F 29% 30.22 in 10.0 mi South 15.0 mph - N/A   Mostly Cloudy
12:56 PM 37.9 °F 29.6 °F 7.2 °F 28% 30.20 in 10.0 mi South 13.8 mph - N/A   Scattered Clouds
1:56 PM 39.9 °F 31.8 °F 9.1 °F 28% 30.21 in 10.0 mi South 15.0 mph 18.4 mph N/A   Clear
2:56 PM 41.9 °F 34.3 °F 13.1 °F 31% 30.19 in 10.0 mi South 15.0 mph 20.7 mph N/A   Clear
3:56 PM 43.0 °F 37.7 °F 14.0 °F 31% 30.20 in 10.0 mi SSE 9.2 mph - N/A   Partly Cloudy
4:56 PM 43.9 °F 37.9 °F 16.2 °F 33% 30.19 in 10.0 mi South 11.5 mph - N/A   Clear
5:56 PM 43.0 °F 37.7 °F 18.1 °F 37% 30.19 in 10.0 mi SSE 9.2 mph 18.4 mph N/A   Clear
6:56 PM 41.0 °F 36.4 °F 19.0 °F 41% 30.18 in 10.0 mi SE 6.9 mph - N/A   Clear
7:56 PM 36.9 °F 32.2 °F 19.0 °F 49% 30.19 in 10.0 mi ESE 5.8 mph - N/A   Clear
8:56 PM 36.9 °F 31.4 °F 18.1 °F 47% 30.20 in 10.0 mi East 6.9 mph - N/A   Clear
9:56 PM 36.0 °F 29.6 °F 16.2 °F 45% 30.19 in 10.0 mi ESE 8.1 mph - N/A   Clear
10:56 PM 34.9 °F 27.1 °F 14.0 °F 42% 30.20 in 10.0 mi SE 10.4 mph - N/A   Clear
11:56 PM 34.0 °F 25.0 °F 13.1 °F 42% 30.18 in 10.0 mi SSE 12.7 mph - N/A   Clear